When you browse on this site, cookies collect data to enhance your experience and personalize the content and advertising you see.
Visit our Privacy Policy to learn more. By continuing to use the site, you agree to this use of cookies and data.
  • In Czech Republic
  • List of Countries
  • For 7 days
  • Water Temperature
  • Weather Map
  • Weather Widgets
  • user-avatar
    Login

    Hourly Weather Chillan

    Today, 31 May, Sunday

    Time Temperature Precipitation Wind Pressure Humidity
    00:00 +5°C° 0 mm 2 mps 754 mmHg 75%
    01:00 +6°C° 0 mm 1 mps 754 mmHg 76%
    02:00 +5°C° 0 mm 1 mps 754 mmHg 78%
    03:00 +5°C° 0 mm 1 mps 754 mmHg 79%
    04:00 +4°C° 0 mm 1 mps 754 mmHg 81%
    05:00 +4°C° 0 mm 1 mps 754 mmHg 80%
    06:00 +4°C° 0 mm 1 mps 754 mmHg 80%
    07:00 +4°C° 0 mm 1 mps 754 mmHg 79%
    08:00 +7°C° 0 mm 1 mps 754 mmHg 70%
    09:00 +9°C° 0 mm 1 mps 754 mmHg 61%
    10:00 +11°C° 0 mm 1 mps 754 mmHg 51%
    11:00 +12°C° 0 mm 1 mps 754 mmHg 49%
    12:00 +14°C° 0 mm 1 mps 754 mmHg 47%
    13:00 +15°C° 0 mm 2 mps 754 mmHg 45%
    14:00 +15°C° 0 mm 1 mps 754 mmHg 48%
    15:00 +14°C° 0 mm 1 mps 753 mmHg 52%
    16:00 +13°C° 0 mm 1 mps 753 mmHg 55%
    17:00 +12°C° 0 mm 1 mps 754 mmHg 58%
    18:00 +11°C° 0 mm 1 mps 754 mmHg 62%
    19:00 +8°C° 0 mm 2 mps 754 mmHg 65%
    20:00 +8°C° 0 mm 2 mps 754 mmHg 68%
    21:00 +7°C° 0 mm 2 mps 754 mmHg 71%
    22:00 +7°C° 0 mm 2 mps 754 mmHg 75%
    23:00 +6°C° 0 mm 2 mps 754 mmHg 77%

    Tomorrow, 1 June, Monday

    Time Temperature Precipitation Wind Pressure Humidity
    00:00 +6°C° 0 mm 2 mps 754 mmHg 79%
    01:00 +5°C° 0 mm 2 mps 755 mmHg 81%
    02:00 +5°C° 0 mm 2 mps 755 mmHg 84%
    03:00 +5°C° 0 mm 2 mps 755 mmHg 86%
    04:00 +5°C° 0 mm 1 mps 755 mmHg 89%
    05:00 +5°C° 0 mm 1 mps 755 mmHg 90%
    06:00 +5°C° 0 mm 1 mps 755 mmHg 92%
    07:00 +5°C° 0 mm 1 mps 756 mmHg 93%
    08:00 +7°C° 0 mm 1 mps 756 mmHg 84%
    09:00 +9°C° 0 mm 1 mps 756 mmHg 75%
    10:00 +11°C° 0 mm 1 mps 756 mmHg 65%
    11:00 +13°C° 0 mm 1 mps 756 mmHg 61%
    12:00 +14°C° 0 mm 1 mps 756 mmHg 56%
    13:00 +16°C° 0 mm 1 mps 756 mmHg 51%
    14:00 +15°C° 0 mm 1 mps 756 mmHg 55%
    15:00 +13°C° 0 mm 0 mps 756 mmHg 58%
    16:00 +12°C° 0 mm 0 mps 756 mmHg 62%
    17:00 +11°C° 0 mm 0 mps 756 mmHg 66%
    18:00 +11°C° 0 mm 1 mps 756 mmHg 70%
    19:00 +10°C° 0 mm 1 mps 757 mmHg 74%
    20:00 +9°C° 0 mm 1 mps 757 mmHg 78%
    21:00 +9°C° 0 mm 1 mps 757 mmHg 83%
    22:00 +8°C° 0 mm 1 mps 757 mmHg 88%
    23:00 +8°C° 0 mm 1 mps 756 mmHg 89%

    Day after tomorrow, 2 June, Tuesday

    Time Temperature Precipitation Wind Pressure Humidity
    00:00 +7°C° 0 mm 1 mps 756 mmHg 90%
    01:00 +7°C° 0 mm 1 mps 756 mmHg 91%
    02:00 +7°C° 0 mm 1 mps 755 mmHg 90%
    03:00 +8°C° 0 mm 1 mps 755 mmHg 89%
    04:00 +8°C° 0 mm 1 mps 755 mmHg 88%
    05:00 +7°C° 0 mm 0 mps 755 mmHg 87%
    06:00 +8°C° 0 mm 0 mps 755 mmHg 85%
    07:00 +8°C° 0 mm 0 mps 755 mmHg 84%
    08:00 +9°C° 0.1 mm 0 mps 754 mmHg 81%
    09:00 +10°C° 0.1 mm 0 mps 754 mmHg 78%
    10:00 +12°C° 0.1 mm 1 mps 753 mmHg 75%
    11:00 +13°C° 0.1 mm 1 mps 753 mmHg 71%
    12:00 +14°C° 0.1 mm 1 mps 752 mmHg 68%
    13:00 +15°C° 0.1 mm 2 mps 752 mmHg 65%
    14:00 +14°C° 0.2 mm 2 mps 751 mmHg 69%
    15:00 +13°C° 0.2 mm 2 mps 751 mmHg 73%
    16:00 +11°C° 0.2 mm 3 mps 751 mmHg 77%
    17:00 +10°C° 0.6 mm 3 mps 751 mmHg 80%
    18:00 +8°C° 0.6 mm 4 mps 752 mmHg 82%
    19:00 +7°C° 0.6 mm 4 mps 752 mmHg 85%
    20:00 +7°C° 0.5 mm 3 mps 752 mmHg 85%
    21:00 +7°C° 0.5 mm 3 mps 752 mmHg 85%
    22:00 +6°C° 0.5 mm 2 mps 752 mmHg 85%
    23:00 +6°C° 0.1 mm 2 mps 752 mmHg 86%

    3 June, Wednesday

    Time Temperature Precipitation Wind Pressure Humidity
    00:00 +4°C° 0.1 mm 3 mps 752 mmHg 88%
    01:00 +4°C° 0.1 mm 3 mps 752 mmHg 90%
    02:00 +4°C° 0 mm 3 mps 752 mmHg 90%
    03:00 +4°C° 0 mm 3 mps 753 mmHg 90%
    04:00 +4°C° 0 mm 3 mps 753 mmHg 90%
    05:00 +4°C° 0 mm 3 mps 753 mmHg 90%
    06:00 +4°C° 0 mm 2 mps 754 mmHg 91%
    07:00 +4°C° 0 mm 2 mps 755 mmHg 91%
    08:00 +6°C° 0 mm 2 mps 755 mmHg 86%
    09:00 +7°C° 0 mm 2 mps 755 mmHg 80%
    10:00 +8°C° 0 mm 2 mps 756 mmHg 74%
    11:00 +10°C° 0 mm 2 mps 756 mmHg 68%
    12:00 +13°C° 0 mm 2 mps 755 mmHg 61%
    13:00 +14°C° 0 mm 2 mps 755 mmHg 54%
    14:00 +14°C° 0 mm 2 mps 755 mmHg 56%
    15:00 +13°C° 0 mm 3 mps 755 mmHg 57%
    16:00 +12°C° 0 mm 3 mps 755 mmHg 59%
    17:00 +11°C° 0 mm 3 mps 755 mmHg 63%
    18:00 +9°C° 0 mm 3 mps 755 mmHg 68%
    19:00 +8°C° 0 mm 3 mps 755 mmHg 73%
    20:00 +7°C° 0 mm 2 mps 755 mmHg 75%
    21:00 +6°C° 0 mm 2 mps 755 mmHg 77%
    22:00 +5°C° 0 mm 2 mps 755 mmHg 79%
    23:00 +5°C° 0 mm 2 mps 755 mmHg 79%

    4 June, Thursday

    Time Temperature Precipitation Wind Pressure Humidity
    00:00 +5°C° 0 mm 1 mps 755 mmHg 80%
    01:00 +5°C° 0 mm 1 mps 755 mmHg 81%
    02:00 +4°C° 0 mm 1 mps 755 mmHg 81%
    03:00 +4°C° 0 mm 1 mps 754 mmHg 81%
    04:00 +4°C° 0 mm 1 mps 754 mmHg 82%
    05:00 +3°C° 0 mm 1 mps 754 mmHg 83%
    06:00 +3°C° 0 mm 1 mps 754 mmHg 83%
    07:00 +3°C° 0 mm 1 mps 754 mmHg 84%
    08:00 +5°C° 0 mm 1 mps 754 mmHg 74%
    09:00 +7°C° 0 mm 1 mps 755 mmHg 64%
    10:00 +10°C° 0 mm 1 mps 755 mmHg 54%
    11:00 +11°C° 0 mm 1 mps 755 mmHg 51%
    12:00 +13°C° 0 mm 2 mps 754 mmHg 47%
    13:00 +14°C° 0 mm 2 mps 754 mmHg 44%
    14:00 +14°C° 0 mm 2 mps 754 mmHg 48%
    15:00 +13°C° 0 mm 2 mps 755 mmHg 53%
    16:00 +12°C° 0 mm 1 mps 755 mmHg 58%
    17:00 +11°C° 0 mm 1 mps 755 mmHg 64%
    18:00 +9°C° 0 mm 1 mps 756 mmHg 69%
    19:00 +8°C° 0 mm 1 mps 756 mmHg 75%
    20:00 +8°C° 0 mm 1 mps 757 mmHg 77%
    21:00 +6°C° 0 mm 2 mps 757 mmHg 78%
    22:00 +6°C° 0 mm 2 mps 757 mmHg 80%
    23:00 +6°C° 0 mm 2 mps 757 mmHg 82%

    5 June, Friday

    Time Temperature Precipitation Wind Pressure Humidity
    00:00 +6°C° 0 mm 2 mps 757 mmHg 83%
    01:00 +6°C° 0 mm 2 mps 757 mmHg 85%
    02:00 +5°C° 0 mm 2 mps 757 mmHg 86%
    03:00 +5°C° 0 mm 2 mps 757 mmHg 87%
    04:00 +6°C° 0 mm 1 mps 757 mmHg 89%
    05:00 +5°C° 0 mm 2 mps 757 mmHg 88%
    06:00 +5°C° 0 mm 2 mps 757 mmHg 87%
    07:00 +5°C° 0 mm 2 mps 757 mmHg 87%
    08:00 +6°C° 0 mm 2 mps 757 mmHg 81%
    09:00 +9°C° 0 mm 1 mps 757 mmHg 76%
    10:00 +11°C° 0 mm 1 mps 756 mmHg 70%
    11:00 +12°C° 0 mm 2 mps 756 mmHg 66%
    12:00 +13°C° 0 mm 2 mps 755 mmHg 61%
    13:00 +15°C° 0 mm 2 mps 755 mmHg 57%
    14:00 +14°C° 0 mm 2 mps 755 mmHg 60%
    15:00 +13°C° 0 mm 1 mps 755 mmHg 63%
    16:00 +13°C° 0 mm 1 mps 755 mmHg 66%
    17:00 +11°C° 0 mm 1 mps 754 mmHg 71%
    18:00 +10°C° 0 mm 1 mps 754 mmHg 76%
    19:00 +9°C° 0 mm 1 mps 754 mmHg 81%
    20:00 +8°C° 0 mm 1 mps 754 mmHg 81%
    21:00 +7°C° 0 mm 0 mps 753 mmHg 81%
    22:00 +6°C° 0 mm 0 mps 753 mmHg 81%
    23:00 +6°C° 0 mm 0 mps 752 mmHg 80%
    Show more